FW7705 Weather Reports


Display with metric or nautical units.
time (UTC)temp
F
wind
direction
speed
MPH
gust
MPH
rain 1hr
in
rain 24hr
in
rain mn
in
humidity
%
barometer
mb
20260508214517 53 28 3.0 4.0 0.00 0.06 0.06 48 1010.1
20260508214013 52 302 2.0 3.0 0.00 0.06 0.06 48 1010.2
20260508213511 53 26 2.0 2.0 0.00 0.06 0.06 51 1010.0
20260508213007 54 329 3.0 4.0 0.00 0.06 0.06 47 1010.2
20260508212503 53 353 2.0 2.0 0.00 0.06 0.06 47 1010.1
20260508211959 52 302 1.0 2.0 0.00 0.06 0.06 51 1010.1
20260508211455 52 320 2.0 2.0 0.00 0.06 0.06 47 1010.1
20260508210952 53 261 3.0 4.0 0.00 0.06 0.06 48 1010.1
20260508210449 54 247 1.0 2.0 0.00 0.06 0.06 51 1010.1
20260508205945 53 34 1.0 3.0 0.00 0.06 0.06 49 1010.3
20260508205442 54 343 4.0 6.0 0.00 0.06 0.06 48 1010.0
20260508204938 53 276 4.0 6.0 0.00 0.06 0.06 48 1010.2
20260508204436 53 294 4.0 6.0 0.00 0.06 0.06 46 1010.3
20260508203931 53 5 4.0 6.0 0.00 0.06 0.06 45 1010.2
20260508203428 53 281 8.0 9.0 0.00 0.06 0.06 49 1010.4
20260508202923 52 5 6.0 7.0 0.00 0.06 0.06 49 1010.7
20260508202421 53 322 5.0 7.0 0.00 0.06 0.06 46 1010.7
20260508201918 52 228 2.0 3.0 0.00 0.06 0.06 47 1010.5
20260508201415 53 259 5.0 6.0 0.00 0.06 0.06 50 1010.4
20260508200911 53 339 3.0 3.0 0.00 0.06 0.06 53 1010.5
20260508200408 53 295 6.0 8.0 0.00 0.06 0.06 47 1010.9
20260508195903 51 312 6.0 8.0 0.00 0.06 0.06 50 1010.6
20260508195401 51 2 6.0 7.0 0.00 0.06 0.06 50 1010.9
20260508194857 53 346 4.0 4.0 0.00 0.06 0.06 51 1010.9
20260508194354 53 294 6.0 7.0 0.00 0.06 0.06 53 1010.8
20260508193851 52 328 7.0 8.0 0.00 0.06 0.06 56 1010.8
20260508193348 52 254 4.0 6.0 0.00 0.06 0.06 51 1011.0
20260508192844 51 321 4.0 7.0 0.00 0.06 0.06 57 1010.9
20260508192341 50 14 5.0 6.0 0.00 0.06 0.06 57 1011.0
20260508191838 49 6 6.0 8.0 0.00 0.06 0.06 61 1011.2
20260508191336 48 354 3.0 3.0 0.00 0.06 0.06 62 1011.3
20260508190832 48 4 8.0 9.0 0.00 0.06 0.06 61 1011.1
20260508190329 49 1 4.0 4.0 0.00 0.06 0.06 60 1011.1
20260508185825 49 305 7.0 8.0 0.00 0.06 0.06 58 1011.2
20260508185323 49 348 5.0 6.0 0.00 0.06 0.06 57 1011.4
20260508184820 49 309 4.0 4.0 0.00 0.06 0.06 62 1011.3
20260508184317 49 279 3.0 3.0 0.00 0.06 0.06 60 1011.6
20260508183814 51 234 8.0 10.0 0.00 0.06 0.06 57 1011.9
20260508183310 50 285 3.0 6.0 0.00 0.06 0.06 67 1011.5
20260508182806 50 265 6.0 7.0 0.00 0.06 0.06 68 1012.0
20260508182306 50 181 7.0 9.0 0.00 0.06 0.06 64 1012.0
20260508181759 48 199 4.0 4.0 0.00 0.06 0.06 64 1011.9
20260508181256 48 230 4.0 4.0 0.00 0.06 0.06 65 1012.0
20260508180753 49 243 3.0 4.0 0.00 0.06 0.06 66 1011.9
20260508180250 49 324 4.0 6.0 0.00 0.06 0.06 66 1011.9
20260508175746 48 338 3.0 4.0 0.00 0.06 0.06 68 1012.1
20260508175242 47 276 3.0 6.0 0.00 0.06 0.06 69 1012.0
20260508174741 48 233 3.0 3.0 0.00 0.06 0.06 72 1011.8
20260508174238 47 235 3.0 4.0 0.00 0.06 0.06 75 1012.0
20260508173734 47 250 6.0 8.0 0.00 0.06 0.06 72 1012.0
20260508173230 46 147 1.0 3.0 0.00 0.06 0.06 77 1012.1
20260508172727 47 320 3.0 3.0 0.00 0.06 0.06 74 1012.1
20260508172224 48 290 3.0 4.0 0.00 0.06 0.06 72 1012.0
20260508171721 48 264 4.0 6.0 0.00 0.06 0.06 74 1011.6
20260508171217 47 335 3.0 3.0 0.00 0.06 0.06 78 1012.0
20260508170714 45 238 1.0 1.0 0.00 0.06 0.06 81 1011.9
20260508170212 45 196 2.0 2.0 0.00 0.06 0.06 78 1011.9
20260508165708 45 192 4.0 4.0 0.00 0.06 0.06 77 1011.9
20260508165206 44 113 1.0 1.0 0.00 0.06 0.06 79 1012.0
20260508164702 44 273 4.0 4.0 0.00 0.06 0.06 81 1012.0
20260508164159 43 145 0.0 1.0 0.00 0.06 0.06 82 1012.1
20260508163657 45 80 1.0 1.0 0.00 0.06 0.06 79 1012.0
20260508163154 44 23 0.0 1.0 0.00 0.06 0.06 84 1012.1
20260508162649 42 22 0.0 1.0 0.00 0.06 0.06 82 1012.1
20260508162146 42 329 0.0 0.0 0.00 0.06 0.06 84 1012.2
20260508161643 41 317 3.0 3.0 0.00 0.06 0.06 86 1012.4
20260508161141 41 67 1.0 1.0 0.00 0.06 0.06 86 1012.3
20260508160639 40 30 1.0 2.0 0.00 0.06 0.06 89 1012.4
20260508160136 40 37 3.0 3.0 0.00 0.06 0.06 90 1012.5
20260508155634 40 4 4.0 4.0 0.00 0.06 0.06 91 1012.4
20260508155130 39 36 2.0 2.0 0.00 0.06 0.06 93 1012.3
20260508154627 39 22 4.0 4.0 0.00 0.06 0.06 93 1012.6
20260508154124 39 15 5.0 6.0 0.00 0.06 0.06 93 1012.5
20260508153621 39 324 3.0 4.0 0.00 0.06 0.06 93 1012.5
20260508153117 39 7 2.0 2.0 0.00 0.06 0.06 92 1012.2
20260508152614 39 40 1.0 1.0 0.00 0.06 0.06 93 1012.1
20260508152109 38 45 2.0 2.0 0.05 0.06 0.06 93 1012.0
20260508151607 38 37 3.0 3.0 0.05 0.06 0.06 93 1012.1
20260508151104 38 344 1.0 2.0 0.00 0.05 0.05 93 1012.6
20260508150601 38 1 1.0 2.0 0.00 0.05 0.05 93 1012.3
20260508150057 38 31 2.0 3.0 0.00 0.05 0.05 93 1012.1
20260508145553 38 29 3.0 3.0 0.00 0.05 0.05 93 1011.9
20260508145050 38 32 2.0 3.0 0.00 0.05 0.05 94 1012.0
20260508144548 38 20 3.0 3.0 0.00 0.05 0.05 94 1012.0
20260508144044 38 23 1.0 1.0 0.00 0.05 0.05 93 1012.1
20260508143542 38 42 2.0 2.0 0.00 0.05 0.05 93 1012.0
20260508143038 38 6 1.0 2.0 0.00 0.05 0.05 93 1012.0
20260508142535 38 10 2.0 2.0 0.00 0.05 0.05 93 1012.0
20260508142032 38 15 2.0 3.0 0.00 0.05 0.05 93 1012.2
20260508141528 38 15 2.0 2.0 0.07 0.05 0.05 92 1012.2
20260508141026 38 295 1.0 2.0 0.07 0.05 0.05 92 1012.3
20260508140523 38 265 1.0 1.0 0.07 0.04 0.04 92 1012.4
20260508140020 38 271 2.0 2.0 0.07 0.04 0.04 91 1012.0
20260508135515 39 321 4.0 4.0 0.00 0.03 0.03 90 1012.3
20260508135012 39 300 5.0 6.0 0.05 0.03 0.03 89 1012.0
20260508134508 39 322 4.0 4.0 0.05 0.03 0.03 88 1012.0
20260508134006 39 313 4.0 6.0 0.07 0.02 0.02 88 1011.9
20260508133503 39 271 2.0 2.0 0.07 0.02 0.02 87 1011.6
20260508132959 40 246 2.0 3.0 0.00 0.01 0.01 86 1011.8
20260508132457 40 282 2.0 2.0 0.05 0.01 0.01 83 1011.5
20260508131954 40 285 3.0 6.0 0.05 0.01 0.01 79 1011.5
20260508131449 41 240 1.0 1.0 0.00 0.00 0.00 83 1011.8
20260508130946 42 234 2.0 2.0 0.00 0.00 0.00 81 1011.4
20260508130444 42 182 0.0 0.0 0.00 0.00 0.00 82 1011.2
20260508125939 42 157 1.0 1.0 0.00 0.00 0.00 82 1011.3
20260508125435 42 147 1.0 1.0 0.00 0.00 0.00 81 1011.0
20260508124933 42 166 1.0 1.0 0.00 0.00 0.00 81 1010.9
20260508124431 42 138 0.0 0.0 0.00 0.00 0.00 79 1010.9
20260508123928 42 201 3.0 4.0 0.00 0.00 0.00 80 1010.8
20260508123427 43 209 3.0 3.0 0.00 0.00 0.00 79 1010.8
20260508122923 43 160 1.0 2.0 0.00 0.00 0.00 78 1010.6
20260508122420 43 157 1.0 1.0 0.00 0.00 0.00 81 1010.8
20260508121917 42 145 1.0 1.0 0.00 0.00 0.00 80 1010.7
20260508121415 42 174 1.0 1.0 0.00 0.00 0.00 83 1010.7
20260508120912 41 167 1.0 1.0 0.00 0.00 0.00 85 1010.8
20260508120410 41 167 0.0 1.0 0.00 0.00 0.00 87 1011.0
20260508115907 41 167 1.0 1.0 0.00 0.00 0.00 87 1010.9
20260508115405 40 148 1.0 1.0 0.00 0.00 0.00 89 1010.8
20260508114901 40 148 1.0 1.0 0.00 0.00 0.00 90 1010.9
20260508114358 39 148 0.0 0.0 0.00 0.00 0.00 92 1010.9
20260508113855 38 148 0.0 0.0 0.00 0.00 0.00 92 1011.1
20260508113353 38 148 0.0 0.0 0.00 0.00 0.00 92 1011.2
20260508112850 38 110 1.0 1.0 0.00 0.00 0.00 93 1011.2
20260508112347 37 109 0.0 0.0 0.00 0.00 0.00 94 1011.1
20260508111843 37 109 0.0 0.0 0.00 0.00 0.00 94 1011.3
20260508111340 37 109 0.0 0.0 0.00 0.00 0.00 94 1011.2
20260508110837 37 109 0.0 0.0 0.00 0.00 0.00 94 1011.2
20260508110335 36 109 0.0 0.0 0.00 0.00 0.00 93 1011.3
20260508105835 35 109 0.0 0.0 0.00 0.00 0.00 93 1011.2
20260508105331 36 109 0.0 0.0 0.00 0.00 0.00 92 1011.0
20260508104828 36 109 0.0 0.0 0.00 0.00 0.00 92 1011.1
20260508104325 36 109 0.0 0.0 0.00 0.00 0.00 91 1011.1
20260508103822 36 109 0.0 0.0 0.00 0.00 0.00 91 1010.9
20260508103319 36 109 0.0 0.0 0.00 0.00 0.00 90 1011.1
20260508102817 37 109 0.0 0.0 0.00 0.00 0.00 90 1011.1
20260508102315 37 109 0.0 1.0 0.00 0.00 0.00 89 1011.1
20260508101812 36 109 0.0 0.0 0.00 0.00 0.00 90 1011.1
20260508101309 36 109 0.0 0.0 0.00 0.00 0.00 90 1011.1
20260508100807 36 109 0.0 0.0 0.00 0.00 0.00 89 1011.3
20260508100305 36 109 1.0 1.0 0.00 0.00 0.00 90 1011.4
20260508095800 35 109 0.0 0.0 0.00 0.00 0.00 92 1011.4
20260508095258 35 109 0.0 0.0 0.00 0.00 0.00 93 1011.1
20260508094755 34 109 0.0 0.0 0.00 0.00 0.00 93 1011.2
20260508094252 34 109 0.0 0.0 0.00 0.00 0.00 92 1010.9
20260508093749 34 109 0.0 0.0 0.00 0.00 0.00 91 1011.1
20260508093247 34 109 0.0 0.0 0.00 0.00 0.00 90 1010.9
20260508092743 35 109 0.0 0.0 0.00 0.00 0.00 88 1011.0
20260508092242 36 109 0.0 0.0 0.00 0.00 0.00 87 1011.0
20260508091739 36 108 0.0 1.0 0.00 0.00 0.00 87 1010.8
20260508091236 36 108 0.0 1.0 0.00 0.00 0.00 88 1010.8
20260508090734 35 108 0.0 0.0 0.00 0.00 0.00 90 1010.9
20260508090231 35 108 1.0 1.0 0.00 0.00 0.00 89 1011.0
20260508085727 35 108 0.0 0.0 0.00 0.00 0.00 88 1011.0
20260508085224 35 108 0.0 0.0 0.00 0.00 0.00 87 1010.9
20260508084720 36 108 0.0 0.0 0.00 0.00 0.00 86 1010.7
20260508084218 36 108 1.0 1.0 0.00 0.00 0.00 85 1010.6
20260508083715 37 92 0.0 0.0 0.00 0.00 0.00 84 1010.7
20260508083213 37 68 0.0 0.0 0.00 0.00 0.00 84 1011.0
20260508082707 37 68 0.0 0.0 0.00 0.00 0.00 83 1010.9
20260508082205 38 67 0.0 0.0 0.00 0.00 0.00 82 1010.6
20260508081702 38 67 0.0 0.0 0.00 0.00 0.00 81 1010.6
20260508081159 39 70 2.0 2.0 0.00 0.00 0.00 80 1010.5
20260508080656 39 69 1.0 2.0 0.00 0.00 0.00 80 1010.3
20260508080154 39 39 2.0 2.0 0.00 0.00 0.00 80 1010.4
20260508075650 39 37 2.0 2.0 0.00 0.00 0.00 79 1010.7
20260508075148 40 8 2.0 3.0 0.00 0.00 0.00 77 1010.5
20260508074645 40 329 3.0 3.0 0.00 0.00 0.00 77 1010.3
20260508074142 41 330 1.0 1.0 0.00 0.00 0.00 77 1010.3
20260508073639 41 264 3.0 4.0 0.00 0.00 0.00 78 1010.5
20260508073137 41 266 3.0 3.0 0.00 0.00 0.00 78 1010.4
20260508072632 41 232 1.0 2.0 0.00 0.00 0.00 80 1010.5
20260508072130 41 182 2.0 2.0 0.00 0.00 0.00 80 1010.7
20260508071627 41 235 5.0 6.0 0.00 0.00 0.00 79 1010.3
20260508071125 40 233 3.0 3.0 0.00 0.00 0.00 80 1010.3
20260508070622 40 177 1.0 1.0 0.00 0.00 0.00 82 1010.4
20260508070121 40 184 1.0 1.0 0.00 0.00 0.00 83 1010.4
20260508065618 39 194 0.0 0.0 0.00 0.00 0.00 86 1010.4
20260508065115 39 109 0.0 0.0 0.00 0.00 0.00 90 1010.4
20260508064613 39 109 0.0 0.0 0.00 0.00 0.00 89 1010.4
20260508064111 39 109 0.0 0.0 0.00 0.00 0.00 89 1010.1
20260508063608 39 109 0.0 0.0 0.00 0.00 0.00 88 1010.0
20260508063106 39 110 2.0 2.0 0.00 0.00 0.00 87 1010.1
20260508062603 39 109 0.0 0.0 0.00 0.00 0.00 85 1010.0
20260508062100 39 109 0.0 0.0 0.00 0.00 0.00 85 1009.9
20260508061558 39 109 0.0 1.0 0.00 0.00 0.00 83 1010.1
20260508061055 39 109 2.0 2.0 0.00 0.00 0.00 83 1010.0
20260508060551 39 109 1.0 1.0 0.00 0.00 0.00 83 1010.1
20260508060049 39 109 0.0 0.0 0.00 0.00 0.00 83 1010.1
20260508055544 39 109 0.0 0.0 0.00 0.00 0.00 84 1010.2
20260508055041 40 109 0.0 0.0 0.00 0.00 0.00 81 1010.3
20260508054537 39 110 2.0 2.0 0.00 0.00 0.00 80 1010.2
20260508054035 39 109 0.0 0.0 0.00 0.00 0.00 81 1010.3
20260508053531 39 109 0.0 0.0 0.00 0.00 0.00 81 1010.3
20260508053030 39 109 0.0 0.0 0.00 0.00 0.00 81 1010.5
20260508052527 40 125 0.0 0.0 0.00 0.00 0.00 77 1010.4
20260508052024 39 125 0.0 0.0 0.00 0.00 0.00 79 1010.5
20260508051520 39 125 0.0 0.0 0.00 0.00 0.00 80 1010.4
20260508051015 40 125 0.0 0.0 0.00 0.00 0.00 80 1010.5
20260508050512 39 125 1.0 1.0 0.00 0.00 0.00 78 1010.3
20260508050009 39 125 1.0 1.0 0.00 0.00 0.00 79 1010.3
20260508045505 39 125 1.0 1.0 0.00 0.00 0.00 78 1010.3
20260508045003 40 124 0.0 1.0 0.00 0.00 0.00 77 1010.7
20260508044500 40 136 0.0 0.0 0.00 0.00 0.00 76 1010.6
20260508043955 40 135 1.0 2.0 0.00 0.00 0.00 79 1010.6
20260508043453 40 140 1.0 1.0 0.00 0.00 0.00 77 1010.6
20260508042949 40 91 0.0 0.0 0.00 0.00 0.00 85 1010.5
20260508042447 39 90 0.0 0.0 0.00 0.00 0.00 84 1010.6
20260508041944 39 90 0.0 0.0 0.00 0.00 0.00 82 1010.3
20260508041440 39 90 0.0 0.0 0.00 0.00 0.00 80 1010.3
20260508040937 39 90 0.0 0.0 0.00 0.00 0.00 79 1010.3
20260508040434 40 90 0.0 0.0 0.00 0.00 0.00 77 1010.2
20260508035932 40 90 0.0 0.0 0.00 0.02 0.02 75 1010.2
20260508035428 41 90 0.0 0.0 0.00 0.02 0.02 71 1010.2
20260508034925 41 90 0.0 0.0 0.00 0.02 0.02 70 1010.1
20260508034423 41 90 0.0 0.0 0.00 0.02 0.02 70 1010.4
20260508033919 41 90 0.0 0.0 0.00 0.02 0.02 71 1010.4
20260508033418 41 90 0.0 0.0 0.00 0.02 0.02 70 1010.3
20260508032915 41 90 0.0 0.0 0.00 0.02 0.02 73 1010.1
20260508032412 40 90 0.0 0.0 0.00 0.02 0.02 77 1010.2
20260508031909 39 90 0.0 0.0 0.00 0.02 0.02 79 1010.1
20260508031406 40 90 0.0 0.0 0.00 0.02 0.02 80 1010.2
20260508030901 40 90 0.0 0.0 0.00 0.02 0.02 78 1010.0
20260508030359 40 90 0.0 0.0 0.00 0.02 0.02 72 1009.9
20260508025856 40 90 0.0 0.0 0.00 0.02 0.02 78 1009.8
20260508025352 39 90 0.0 0.0 0.00 0.02 0.02 76 1009.8
20260508024849 39 90 0.0 0.0 0.00 0.02 0.02 77 1009.9
20260508024346 39 90 0.0 0.0 0.00 0.02 0.02 78 1009.9
20260508023843 39 90 0.0 0.0 0.00 0.02 0.02 77 1009.9
20260508023340 39 90 0.0 0.0 0.00 0.02 0.02 75 1009.8
20260508022837 39 90 0.0 0.0 0.00 0.02 0.02 74 1009.8
20260508022332 39 90 0.0 0.0 0.00 0.02 0.02 75 1009.9
20260508021830 39 90 0.0 0.0 0.00 0.02 0.02 75 1009.8
20260508021325 39 90 1.0 1.0 0.00 0.02 0.02 75 1009.8
20260508020821 39 90 1.0 1.0 0.00 0.02 0.02 76 1009.8
20260508020320 40 90 0.0 0.0 0.00 0.02 0.02 74 1009.9
20260508015816 40 90 0.0 0.0 0.00 0.02 0.02 72 1009.7
20260508015314 40 90 0.0 0.0 0.00 0.02 0.02 74 1009.7
20260508014811 39 90 0.0 0.0 0.00 0.02 0.02 75 1009.8
20260508014308 40 90 0.0 0.0 0.00 0.02 0.02 75 1009.8
20260508013803 40 90 0.0 0.0 0.00 0.02 0.02 74 1009.6
20260508013259 40 90 0.0 0.0 0.00 0.02 0.02 74 1009.5
20260508012757 41 90 0.0 0.0 0.00 0.02 0.02 72 1009.4
20260508012254 41 90 0.0 0.0 0.00 0.02 0.02 72 1009.6
20260508011752 42 90 0.0 0.0 0.00 0.02 0.02 68 1009.5
20260508011249 42 91 1.0 1.0 0.00 0.02 0.02 67 1009.6
20260508010746 43 90 0.0 0.0 0.00 0.02 0.02 68 1009.6
20260508010244 43 90 1.0 1.0 0.00 0.02 0.02 64 1009.6
20260508005741 44 90 1.0 1.0 0.00 0.02 0.02 64 1009.6
20260508005237 44 88 1.0 1.0 0.00 0.02 0.02 61 1009.5
20260508004733 44 92 1.0 1.0 0.00 0.02 0.02 62 1009.5
20260508004229 44 18 1.0 1.0 0.00 0.02 0.02 60 1009.3
20260508003726 45 54 1.0 1.0 0.00 0.02 0.02 59 1009.4
20260508003224 46 41 2.0 2.0 0.00 0.02 0.02 58 1009.3
20260508002720 46 32 2.0 3.0 0.00 0.02 0.02 58 1009.1
20260508002218 47 25 5.0 6.0 0.00 0.02 0.02 56 1009.1
20260508001713 47 41 3.0 3.0 0.00 0.02 0.02 56 1008.9
20260508001209 48 14 2.0 2.0 0.00 0.02 0.02 56 1008.8
20260508000705 48 15 4.0 4.0 0.00 0.02 0.02 55 1008.9
20260508000204 48 8 2.0 2.0 0.00 0.02 0.02 55 1008.9
20260507235659 48 6 3.0 3.0 0.00 0.02 0.02 54 1009.0
20260507235156 49 349 2.0 3.0 0.00 0.02 0.02 56 1008.9
20260507234653 49 62 1.0 1.0 0.00 0.02 0.02 56 1008.7
20260507234150 49 61 1.0 1.0 0.00 0.02 0.02 54 1008.7
20260507233647 50 26 2.0 3.0 0.00 0.02 0.02 53 1008.7
20260507233145 49 327 2.0 2.0 0.00 0.02 0.02 52 1008.5
20260507232641 49 17 3.0 3.0 0.00 0.02 0.02 55 1008.7
20260507232138 50 11 1.0 2.0 0.00 0.02 0.02 54 1008.9
20260507231635 50 348 4.0 4.0 0.00 0.02 0.02 51 1008.9
20260507231132 51 7 2.0 3.0 0.00 0.02 0.02 49 1008.7
20260507230628 51 311 2.0 2.0 0.00 0.02 0.02 50 1008.7
20260507230126 51 324 6.0 8.0 0.00 0.02 0.02 51 1008.6
20260507225626 51 9 5.0 6.0 0.00 0.02 0.02 51 1008.9
20260507225122 51 19 3.0 4.0 0.00 0.02 0.02 52 1008.6
20260507224618 52 3 8.0 9.0 0.00 0.02 0.02 49 1008.7
20260507224115 52 284 5.0 6.0 0.00 0.02 0.02 48 1008.7
20260507223611 52 7 7.0 7.0 0.00 0.02 0.02 47 1008.7
20260507223108 51 299 4.0 6.0 0.00 0.02 0.02 49 1008.8
20260507222605 51 15 1.0 1.0 0.00 0.02 0.02 48 1008.7
20260507222101 52 331 4.0 6.0 0.00 0.02 0.02 48 1008.6
20260507221558 52 6 8.0 10.0 0.00 0.02 0.02 50 1008.8
20260507221054 53 350 8.0 10.0 0.00 0.02 0.02 46 1008.8
20260507220552 53 3 5.0 6.0 0.00 0.02 0.02 47 1008.7
20260507220049 52 4 5.0 6.0 0.00 0.02 0.02 50 1008.5
20260507215545 51 328 4.0 6.0 0.00 0.02 0.02 51 1008.7
20260507215043 53 316 7.0 8.0 0.00 0.02 0.02 48 1008.7